Simultaneous Nadir Overpasses (SNOs) Predictions

Prediction of SNOs between LANDSAT-8 and NOAA-19 Satellite Orbit:

Table of predicted SNOs for the next 14.0 days since TLE Epoch: 7/21/2018
Index Date (LANDSAT-8) Time (LANDSAT-8) Lat,Lon (LANDSAT-8) SZA (LANDSAT-8 ) Date (NOAA-19) Time (NOAA-19) Lat,Lon (NOAA-19) SZA (NOAA-19 ) Distance(km) Time Diff (sec)
1 07/22/2018 20:43:15 77.79,-116.26 57.92 07/22/2018 20:42:18 77.79,-116.27 57.91 0.65 57
2 07/22/2018 21:32:43 -77.76, 51.23 122.12 07/22/2018 21:33:14 -77.76, 51.18 122.11 1.37 31
3 07/25/2018 02:17:00 -77.82, -19.58 121.59 07/25/2018 02:15:48 -77.79, -19.53 121.63 3.43 72
4 07/25/2018 03:06:27 77.76, 147.83 58.35 07/25/2018 03:06:52 77.76, 147.84 58.36 0.32 25
5 07/27/2018 07:50:42 77.91, 77.40 59.01 07/27/2018 07:49:31 77.97, 76.13 58.99 30.25 71
6 07/27/2018 08:40:12 -77.79,-115.49 121.13 07/27/2018 08:40:22 -77.77,-115.52 121.14 1.93 10
7 07/29/2018 14:13:56 77.79, -18.93 59.40 07/29/2018 14:14:01 77.79, -18.94 59.40 0.44 5
8 07/31/2018 19:47:41 -77.81, 77.76 120.03 07/31/2018 19:47:30 -77.79, 77.74 120.05 2.35 11
9 08/03/2018 01:21:25 77.81, 174.29 60.53 08/03/2018 01:21:09 77.80, 174.39 60.53 2.54 16




NCC Satellite Simultaneous Nadir Overpasses (SNOs) Prediction Service
